This is the latest recevied weather packets stored in our database for station/object K7GFH-13. If no packets are shown the sender has not sent any weather packets the latest 10 day(s).
| Time | Temp. | Humidity | Pressure | Rain* | Wind** | Luminosity | Snow |
|---|---|---|---|---|---|---|---|
| 1778128979 | 13.33° C | 79% | 1023 hPa | 0 mm | - | 0 W/m² | - |
| 1778128074 | 13.33° C | 79% | 1023 hPa | 0 mm | - | 0 W/m² | - |
| 1778127170 | 13.89° C | 79% | 1022.8 hPa | 0 mm | - | 0 W/m² | - |
| 1778126265 | 13.89° C | 79% | 1022.5 hPa | 0 mm | - | 0 W/m² | - |
| 1778125361 | 13.89° C | 79% | 1022.4 hPa | 0 mm | - | 0 W/m² | - |
| 1778124459 | 14.44° C | 78% | 1022.3 hPa | 0 mm | - | 2 W/m² | - |
| 1778123555 | 14.44° C | 78% | 1022 hPa | 0 mm | - | 9 W/m² | - |
| 1778122652 | 15° C | 76% | 1021.8 hPa | 0 mm | - | 21 W/m² | - |
| 1778121750 | 15.56° C | 75% | 1021.7 hPa | 0 mm | - | 31 W/m² | - |
| 1778120846 | 16.11° C | 73% | 1021.7 hPa | 0 mm | - | 47 W/m² | - |
| 1778119945 | 16.67° C | 72% | 1021.8 hPa | 0 mm | - | 71 W/m² | - |
| 1778119044 | 17.22° C | 74% | 1021.7 hPa | 0 mm | - | 80 W/m² | - |
| 1778118139 | 17.22° C | 74% | 1021.9 hPa | 0 mm | - | 61 W/m² | - |
| 1778117236 | 17.78° C | 72% | 1021.7 hPa | 0 mm | - | 105 W/m² | - |
| 1778116337 | 17.78° C | 71% | 1021.9 hPa | 0 mm | - | 92 W/m² | - |
| 1778115435 | 17.78° C | 70% | 1021.8 hPa | 0 mm | - | 126 W/m² | - |
| 1778114532 | 18.33° C | 69% | 1021.9 hPa | 0 mm | - | 113 W/m² | - |
| 1778113630 | 19.44° C | 64% | 1021.8 hPa | 0 mm | - | 392 W/m² | - |
| 1778112727 | 20° C | 61% | 1021.8 hPa | 0 mm | - | 168 W/m² | - |
| 1778111821 | 19.44° C | 62% | 1022 hPa | 0 mm | - | 440 W/m² | - |
| 1778110917 | 18.33° C | 67% | 1022.1 hPa | 0 mm | - | 415 W/m² | - |
| 1778110013 | 18.33° C | 67% | 1021.8 hPa | 0 mm | - | 247 W/m² | - |
| 1778109111 | 18.33° C | 69% | 1022.2 hPa | 0 mm | - | 534 W/m² | - |
| 1778108206 | 17.78° C | 71% | 1022.4 hPa | 0 mm | - | 193 W/m² | - |
| 1778107302 | 18.89° C | 69% | 1022.4 hPa | 0 mm | - | 308 W/m² | - |
* Rain latest hour (hover to see other rain measurements)
** Current wind speed in m/s (hover to see current wind gust speed)